PAL891 RCTP-RPLL

Flight info

Callsign PAL891
Flight time N/A
Altitude 36000
Route TINHO1A TINHO Q11 POTIB M646 LAO/N0493F350 B462 CAB CAB3R
Aircraft B77W/H-SDE1E2E3FGHIJ2J3J4J5M1RWXY/LB1D1

Departure

Time 2026-04-30 12:04
Airport Taiwan Taoyuan International Airport (RCTP)

Arrival

Time N/A
Airport Ninoy Aquino International Airport (RPLL)
Time Latitude Longitude Altitude Speed Heading
2026-04-30 11:42 25.07880 121.23779 92 ft 0 kts 319°
2026-04-30 11:53 25.07876 121.23784 92 ft 4 kts 319°
2026-04-30 11:53 25.07855 121.23803 91 ft 4 kts 319°
2026-04-30 11:53 25.07835 121.23823 87 ft 4 kts 318°
2026-04-30 11:54 25.07816 121.23843 92 ft 4 kts 315°
2026-04-30 11:54 25.07802 121.23860 91 ft 2 kts 301°
2026-04-30 11:54 25.07797 121.23872 92 ft 2 kts 270°
2026-04-30 11:54 25.07799 121.23885 91 ft 2 kts 239°
2026-04-30 11:55 25.07805 121.23895 90 ft 2 kts 233°
2026-04-30 11:55 25.07806 121.23896 90 ft 0 kts 233°
2026-04-30 11:57 25.07766 121.23841 92 ft 15 kts 230°
2026-04-30 11:57 25.07696 121.23753 91 ft 15 kts 229°
2026-04-30 11:57 25.07618 121.23692 91 ft 9 kts 176°
2026-04-30 11:58 25.07564 121.23725 93 ft 9 kts 140°
2026-04-30 11:58 25.07516 121.23771 93 ft 10 kts 139°
2026-04-30 11:58 25.07451 121.23761 90 ft 11 kts 218°
2026-04-30 11:58 25.07385 121.23686 92 ft 16 kts 227°
2026-04-30 11:59 25.07305 121.23583 93 ft 20 kts 230°
2026-04-30 11:59 25.07212 121.23461 95 ft 21 kts 230°
2026-04-30 11:59 25.07114 121.23342 94 ft 21 kts 227°
2026-04-30 11:59 25.07021 121.23220 96 ft 21 kts 230°
2026-04-30 12:00 25.06927 121.23098 95 ft 21 kts 229°
2026-04-30 12:00 25.06830 121.22978 96 ft 21 kts 229°
2026-04-30 12:00 25.06741 121.22864 95 ft 21 kts 229°
2026-04-30 12:00 25.06646 121.22742 97 ft 21 kts 229°
2026-04-30 12:01 25.06551 121.22620 98 ft 21 kts 229°
2026-04-30 12:01 25.06454 121.22499 97 ft 21 kts 227°
2026-04-30 12:01 25.06374 121.22407 99 ft 0 kts 222°
2026-04-30 12:02 25.06369 121.22405 98 ft 3 kts 207°
2026-04-30 12:02 25.06329 121.22426 99 ft 9 kts 139°
2026-04-30 12:02 25.06281 121.22474 101 ft 9 kts 135°
2026-04-30 12:02 25.06241 121.22529 99 ft 9 kts 108°
2026-04-30 12:03 25.06262 121.22583 100 ft 0 kts 47°
2026-04-30 12:03 25.06262 121.22584 100 ft 3 kts 47°
2026-04-30 12:03 25.06434 121.22797 96 ft 81 kts 49°
2026-04-30 12:04 25.06983 121.23500 98 ft 158 kts 47°
2026-04-30 12:04 25.07785 121.24504 663 ft 167 kts 45°
2026-04-30 12:04 25.08527 121.25462 1690 ft 167 kts 49°
2026-04-30 12:04 25.09306 121.26487 2203 ft 186 kts 49°
2026-04-30 12:05 25.10205 121.27672 2461 ft 217 kts 50°
2026-04-30 12:05 25.11221 121.29014 2997 ft 232 kts 50°
2026-04-30 12:05 25.12153 121.30507 3562 ft 244 kts 71°
2026-04-30 12:05 25.12207 121.32423 4156 ft 265 kts 107°
2026-04-30 12:06 25.11639 121.33635 4607 ft 273 kts 130°
2026-04-30 12:06 25.10222 121.35029 5428 ft 275 kts 144°
2026-04-30 12:06 25.08209 121.36825 6516 ft 286 kts 144°
2026-04-30 12:06 25.07171 121.37761 7124 ft 285 kts 144°
2026-04-30 12:07 25.05150 121.39594 8314 ft 287 kts 145°
2026-04-30 12:07 25.04095 121.40546 8806 ft 292 kts 146°
2026-04-30 12:07 25.02504 121.41982 9629 ft 297 kts 146°
2026-04-30 12:07 25.00921 121.43417 10395 ft 302 kts 146°
2026-04-30 12:08 24.99247 121.44931 10781 ft 324 kts 146°
2026-04-30 12:08 24.97430 121.46570 10980 ft 352 kts 146°
2026-04-30 12:08 24.95460 121.48353 11215 ft 379 kts 145°
2026-04-30 12:08 24.93388 121.50234 11783 ft 392 kts 145°
2026-04-30 12:09 24.91265 121.52170 12688 ft 398 kts 145°
2026-04-30 12:09 24.89107 121.54140 13491 ft 408 kts 145°
2026-04-30 12:09 24.86892 121.56158 14240 ft 416 kts 145°
2026-04-30 12:09 24.84649 121.58201 15055 ft 421 kts 145°
2026-04-30 12:10 24.82372 121.60272 15823 ft 428 kts 145°
2026-04-30 12:10 24.80058 121.62374 16541 ft 435 kts 144°
2026-04-30 12:10 24.77700 121.64516 17230 ft 442 kts 144°
2026-04-30 12:10 24.75308 121.66685 17930 ft 449 kts 144°
2026-04-30 12:11 24.72876 121.68891 18619 ft 454 kts 144°
2026-04-30 12:11 24.70463 121.71080 19201 ft 459 kts 144°
2026-04-30 12:11 24.67985 121.73321 19849 ft 462 kts 144°
2026-04-30 12:11 24.65490 121.75579 20482 ft 466 kts 144°
2026-04-30 12:12 24.62978 121.77851 21124 ft 470 kts 144°
2026-04-30 12:12 24.60438 121.80146 21734 ft 474 kts 144°
2026-04-30 12:12 24.57891 121.82450 22514 ft 474 kts 144°
2026-04-30 12:12 24.55342 121.84755 23205 ft 477 kts 144°
2026-04-30 12:13 24.52762 121.87084 23754 ft 481 kts 144°
2026-04-30 12:13 24.50162 121.89427 24201 ft 486 kts 144°
2026-04-30 12:13 24.47540 121.91793 24705 ft 489 kts 144°
2026-04-30 12:13 24.44905 121.94170 25213 ft 492 kts 144°
2026-04-30 12:14 24.42252 121.96561 25740 ft 494 kts 144°
2026-04-30 12:14 24.39581 121.98926 26209 ft 491 kts 148°
2026-04-30 12:14 24.36591 122.00712 26469 ft 489 kts 165°
2026-04-30 12:14 24.33277 122.01416 26901 ft 482 kts 181°
2026-04-30 12:15 24.29962 122.01235 27443 ft 475 kts 194°
2026-04-30 12:15 24.26796 122.00307 27903 ft 471 kts 201°
2026-04-30 12:15 24.23659 121.99217 28267 ft 475 kts 201°
2026-04-30 12:15 24.20531 121.98129 28674 ft 479 kts 201°
2026-04-30 12:16 24.17340 121.97039 29122 ft 481 kts 201°
2026-04-30 12:16 24.14122 121.95963 29552 ft 483 kts 200°
2026-04-30 12:16 24.10901 121.94902 29952 ft 485 kts 200°
2026-04-30 12:16 24.07664 121.93847 30384 ft 484 kts 200°
2026-04-30 12:17 24.01212 121.91755 31343 ft 481 kts 200°
2026-04-30 12:17 23.98015 121.90718 31912 ft 477 kts 201°
2026-04-30 12:17 23.94845 121.89689 32466 ft 473 kts 201°
2026-04-30 12:18 23.91725 121.88675 32962 ft 471 kts 201°
2026-04-30 12:18 23.88585 121.87654 33454 ft 469 kts 201°
2026-04-30 12:18 23.85464 121.86640 33942 ft 467 kts 201°
2026-04-30 12:18 23.82346 121.85629 34339 ft 465 kts 201°
2026-04-30 12:19 23.79228 121.84617 34545 ft 469 kts 200°
2026-04-30 12:19 23.76095 121.83602 34833 ft 470 kts 200°
2026-04-30 12:19 23.73006 121.82602 35243 ft 467 kts 200°
2026-04-30 12:19 23.69882 121.81592 35685 ft 464 kts 200°
2026-04-30 12:20 23.66795 121.80593 36049 ft 463 kts 200°
2026-04-30 12:20 23.63693 121.79588 36138 ft 467 kts 201°
2026-04-30 12:20 23.60579 121.78580 36497 ft 464 kts 201°
2026-04-30 12:20 23.57497 121.77586 36926 ft 460 kts 201°
2026-04-30 12:21 23.54431 121.76594 37284 ft 459 kts 200°
2026-04-30 12:21 23.51381 121.75606 37655 ft 457 kts 200°
2026-04-30 12:21 23.48375 121.74631 37977 ft 456 kts 200°
2026-04-30 12:21 23.45326 121.73641 38009 ft 459 kts 200°
2026-04-30 12:22 23.39208 121.71663 38035 ft 457 kts 200°
2026-04-30 12:22 23.33130 121.69706 38033 ft 453 kts 200°
2026-04-30 12:23 23.27093 121.67763 38044 ft 451 kts 200°
2026-04-30 12:23 23.21059 121.65821 38034 ft 452 kts 200°
2026-04-30 12:24 23.15057 121.63890 38038 ft 453 kts 200°
2026-04-30 12:24 23.08989 121.61941 38029 ft 454 kts 200°
2026-04-30 12:25 23.02908 121.59989 38023 ft 456 kts 200°
2026-04-30 12:25 22.96858 121.58050 38021 ft 458 kts 200°
2026-04-30 12:26 22.90735 121.56094 38020 ft 459 kts 200°
2026-04-30 12:26 22.84600 121.54135 38020 ft 459 kts 200°
2026-04-30 12:27 22.78466 121.52178 37995 ft 459 kts 200°
2026-04-30 12:27 22.72360 121.50230 38007 ft 460 kts 200°
2026-04-30 12:28 22.66247 121.48204 38002 ft 458 kts 204°
2026-04-30 12:28 22.60356 121.45624 38001 ft 456 kts 206°
2026-04-30 12:29 22.54480 121.43002 37992 ft 456 kts 206°
2026-04-30 12:29 22.48593 121.40399 38011 ft 456 kts 206°
2026-04-30 12:30 22.42743 121.37828 38012 ft 456 kts 206°
2026-04-30 12:30 22.36862 121.35249 38010 ft 456 kts 206°
2026-04-30 12:31 22.30966 121.32665 38016 ft 455 kts 206°
2026-04-30 12:31 22.25093 121.30093 38015 ft 455 kts 206°
2026-04-30 12:32 22.19262 121.27542 38026 ft 455 kts 206°
2026-04-30 12:32 22.13394 121.24976 38024 ft 455 kts 206°
2026-04-30 12:33 22.07520 121.22410 38027 ft 455 kts 206°
2026-04-30 12:33 22.01633 121.19840 38027 ft 456 kts 206°
2026-04-30 12:34 21.95751 121.17277 38028 ft 456 kts 206°
2026-04-30 12:34 21.89900 121.14729 38028 ft 456 kts 206°
2026-04-30 12:35 21.84011 121.12166 38026 ft 456 kts 206°
2026-04-30 12:35 21.78121 121.09604 38012 ft 456 kts 206°
2026-04-30 12:36 21.72230 121.07045 38024 ft 456 kts 206°
2026-04-30 12:36 21.66375 121.04502 38021 ft 456 kts 206°
2026-04-30 12:37 21.60484 121.01947 38021 ft 456 kts 206°
2026-04-30 12:37 21.54601 120.99397 38016 ft 456 kts 206°
2026-04-30 12:38 21.48722 120.96851 38010 ft 455 kts 206°
2026-04-30 12:38 21.42851 120.94310 38016 ft 455 kts 206°
2026-04-30 12:39 21.36971 120.91769 38016 ft 455 kts 206°
2026-04-30 12:39 21.31123 120.89243 38017 ft 455 kts 206°
2026-04-30 12:40 21.25241 120.86704 37995 ft 455 kts 205°
2026-04-30 12:40 21.19357 120.84167 38010 ft 455 kts 205°
2026-04-30 12:41 21.13477 120.81633 38011 ft 455 kts 205°
2026-04-30 12:41 21.07637 120.79119 38011 ft 455 kts 205°
2026-04-30 12:42 21.01703 120.76746 38006 ft 458 kts 199°
2026-04-30 12:42 20.95426 120.75390 38010 ft 463 kts 190°
2026-04-30 12:43 20.88976 120.74848 38016 ft 464 kts 188°
2026-04-30 12:43 20.82528 120.74363 38005 ft 464 kts 188°
2026-04-30 12:44 20.76118 120.73859 38009 ft 464 kts 189°
2026-04-30 12:44 20.69677 120.73332 37992 ft 464 kts 189°
2026-04-30 12:45 20.63240 120.72800 38008 ft 464 kts 189°
2026-04-30 12:45 20.56792 120.72267 38005 ft 464 kts 189°
2026-04-30 12:46 20.50355 120.71737 38002 ft 464 kts 189°
2026-04-30 12:46 20.43959 120.71211 38003 ft 464 kts 189°
2026-04-30 12:47 20.37517 120.70681 38006 ft 463 kts 189°
2026-04-30 12:47 20.31087 120.70153 38005 ft 463 kts 189°
2026-04-30 12:48 20.24654 120.69625 38005 ft 463 kts 189°
2026-04-30 12:48 20.18224 120.69098 38005 ft 463 kts 189°
2026-04-30 12:49 20.11843 120.68576 37995 ft 462 kts 189°
2026-04-30 12:49 20.05421 120.68050 38003 ft 462 kts 189°
2026-04-30 12:50 19.99012 120.67526 38001 ft 461 kts 189°
2026-04-30 12:50 19.92616 120.67003 38002 ft 461 kts 189°
2026-04-30 12:51 19.86218 120.66481 38002 ft 461 kts 189°
2026-04-30 12:51 19.79860 120.65962 38007 ft 460 kts 189°
2026-04-30 12:52 19.74546 120.65529 38001 ft 460 kts 189°
2026-04-30 12:52 19.67072 120.64920 37995 ft 460 kts 189°
2026-04-30 12:53 19.61765 120.64488 37998 ft 460 kts 189°
2026-04-30 12:53 19.54342 120.63883 37986 ft 460 kts 189°
2026-04-30 12:54 19.48990 120.63449 38000 ft 460 kts 189°
2026-04-30 12:54 19.42643 120.62933 38002 ft 460 kts 189°
2026-04-30 12:55 19.36461 120.62433 37997 ft 460 kts 189°
2026-04-30 12:55 19.30064 120.61919 37999 ft 460 kts 189°
2026-04-30 12:56 19.23674 120.61406 38003 ft 461 kts 189°
2026-04-30 12:56 19.17313 120.60894 38000 ft 461 kts 189°
2026-04-30 12:57 19.10922 120.60381 37993 ft 461 kts 189°
2026-04-30 12:57 19.04507 120.59864 38000 ft 461 kts 189°
2026-04-30 12:58 18.98160 120.59351 37979 ft 461 kts 188°
2026-04-30 12:58 18.91760 120.58835 37989 ft 460 kts 188°
2026-04-30 12:59 18.85365 120.58320 37988 ft 460 kts 188°
2026-04-30 12:59 18.78978 120.57805 37985 ft 460 kts 188°
2026-04-30 13:00 18.72619 120.57293 37986 ft 460 kts 189°
2026-04-30 13:00 18.66221 120.56778 37981 ft 460 kts 188°
2026-04-30 13:01 18.60022 120.56281 37979 ft 461 kts 188°
2026-04-30 13:01 18.53611 120.55766 37975 ft 462 kts 188°
2026-04-30 13:02 18.47239 120.55255 37971 ft 462 kts 188°
2026-04-30 13:02 18.40820 120.54741 37954 ft 462 kts 188°
2026-04-30 13:03 18.34403 120.54227 37968 ft 462 kts 188°
2026-04-30 13:03 18.27988 120.53714 37961 ft 462 kts 188°
2026-04-30 13:04 18.21574 120.53204 37964 ft 462 kts 188°
2026-04-30 13:04 18.15112 120.53383 37885 ft 466 kts 178°
2026-04-30 13:05 18.11898 120.53937 37680 ft 469 kts 174°
2026-04-30 13:05 18.08692 120.54580 37504 ft 468 kts 174°
2026-04-30 13:05 18.05528 120.55204 37350 ft 467 kts 174°
2026-04-30 13:06 17.99132 120.56402 37077 ft 465 kts 174°
2026-04-30 13:06 17.92708 120.57586 36984 ft 472 kts 174°
2026-04-30 13:07 17.86199 120.58791 36973 ft 476 kts 174°
2026-04-30 13:07 17.79665 120.60004 36953 ft 477 kts 174°
2026-04-30 13:08 17.73132 120.61215 36972 ft 476 kts 174°
2026-04-30 13:08 17.66608 120.62422 36964 ft 475 kts 174°
2026-04-30 13:09 17.60104 120.63621 36993 ft 474 kts 174°
2026-04-30 13:09 17.53642 120.64811 36996 ft 474 kts 174°
2026-04-30 13:10 17.47163 120.66003 36993 ft 473 kts 174°
2026-04-30 13:10 17.40666 120.67200 37000 ft 473 kts 174°
2026-04-30 13:11 17.34175 120.68393 37004 ft 473 kts 174°
2026-04-30 13:11 17.27692 120.69585 37014 ft 473 kts 174°
2026-04-30 13:12 17.21199 120.70781 37011 ft 473 kts 174°
2026-04-30 13:12 17.14744 120.71972 37031 ft 473 kts 173°
2026-04-30 13:13 17.05002 120.73770 37040 ft 473 kts 173°
2026-04-30 13:14 16.95294 120.75558 37062 ft 474 kts 173°
2026-04-30 13:14 16.85551 120.77351 37068 ft 473 kts 173°
2026-04-30 13:15 16.75849 120.79135 37070 ft 473 kts 173°
2026-04-30 13:16 16.69368 120.80325 37065 ft 472 kts 173°
2026-04-30 13:16 16.62900 120.81514 37079 ft 471 kts 173°
2026-04-30 13:17 16.53199 120.83291 37057 ft 472 kts 173°
2026-04-30 13:18 16.43476 120.85071 37050 ft 472 kts 173°
2026-04-30 13:18 16.33800 120.86843 37032 ft 473 kts 173°
2026-04-30 13:19 16.27321 120.88029 37028 ft 472 kts 173°
2026-04-30 13:19 16.20829 120.89216 37022 ft 470 kts 173°
2026-04-30 13:20 16.17611 120.89813 36617 ft 469 kts 172°
2026-04-30 13:20 16.14398 120.90416 35981 ft 468 kts 172°
2026-04-30 13:20 16.11231 120.91028 35207 ft 466 kts 170°
2026-04-30 13:20 16.08069 120.91674 34353 ft 460 kts 170°
2026-04-30 13:21 16.04940 120.92298 33416 ft 455 kts 170°
2026-04-30 13:21 16.01834 120.92882 32514 ft 452 kts 171°
2026-04-30 13:21 15.98721 120.93442 31596 ft 456 kts 171°
2026-04-30 13:22 15.92253 120.94576 29940 ft 492 kts 171°
2026-04-30 13:22 15.88842 120.95173 29084 ft 498 kts 171°
2026-04-30 13:22 15.82071 120.96387 27611 ft 487 kts 170°
2026-04-30 13:23 15.78748 120.96993 26913 ft 482 kts 170°
2026-04-30 13:23 15.72216 120.98181 25556 ft 472 kts 169°
2026-04-30 13:24 15.66065 120.99287 24542 ft 457 kts 169°
2026-04-30 13:24 15.59990 121.00371 24138 ft 429 kts 169°
2026-04-30 13:25 15.54422 121.01369 23757 ft 383 kts 168°
2026-04-30 13:25 15.49441 121.02278 23407 ft 344 kts 172°
2026-04-30 13:26 15.42814 121.00453 22448 ft 348 kts 197°
2026-04-30 13:26 15.38226 120.98669 21591 ft 347 kts 197°
2026-04-30 13:27 15.33840 120.96948 20770 ft 326 kts 197°
2026-04-30 13:28 15.27632 120.94515 19678 ft 320 kts 196°
2026-04-30 13:28 15.23331 120.92819 18897 ft 338 kts 197°
2026-04-30 13:28 15.21147 120.91953 18475 ft 331 kts 197°
2026-04-30 13:29 15.16854 120.91376 17456 ft 323 kts 168°
2026-04-30 13:29 15.12406 120.92179 16090 ft 323 kts 166°
2026-04-30 13:30 15.05845 120.93355 14458 ft 315 kts 167°
2026-04-30 13:31 15.01560 120.94075 13365 ft 312 kts 167°
2026-04-30 13:31 14.95209 120.95117 11746 ft 303 kts 166°
2026-04-30 13:32 14.91068 120.95789 10735 ft 299 kts 166°
2026-04-30 13:32 14.86976 120.96452 10130 ft 300 kts 166°
2026-04-30 13:33 14.82876 120.97111 10000 ft 294 kts 167°
2026-04-30 13:33 14.78915 120.96195 10023 ft 305 kts 212°
2026-04-30 13:34 14.77340 120.94692 10025 ft 309 kts 223°
2026-04-30 13:34 14.73212 120.89654 9991 ft 305 kts 226°
2026-04-30 13:35 14.71866 120.87958 9995 ft 304 kts 226°
2026-04-30 13:35 14.69201 120.84584 9995 ft 303 kts 226°
2026-04-30 13:36 14.66540 120.81207 9996 ft 303 kts 226°
2026-04-30 13:36 14.65213 120.79522 9996 ft 304 kts 226°
2026-04-30 13:36 14.62547 120.76138 10010 ft 305 kts 226°
2026-04-30 13:37 14.61205 120.74436 9994 ft 305 kts 226°
2026-04-30 13:37 14.58520 120.71030 10008 ft 306 kts 226°
2026-04-30 13:38 14.55829 120.67619 10008 ft 306 kts 226°
2026-04-30 13:38 14.54485 120.65918 9996 ft 306 kts 226°
2026-04-30 13:38 14.51887 120.62629 9998 ft 305 kts 226°
2026-04-30 13:39 14.49208 120.59235 10014 ft 305 kts 226°
2026-04-30 13:39 14.46533 120.55854 9989 ft 305 kts 226°
2026-04-30 13:40 14.45643 120.54734 9848 ft 303 kts 226°
2026-04-30 13:40 14.43864 120.52490 9137 ft 301 kts 226°
2026-04-30 13:40 14.42534 120.50823 8534 ft 301 kts 225°
2026-04-30 13:40 14.41549 120.49822 8231 ft 300 kts 211°
2026-04-30 13:41 14.39691 120.49011 7727 ft 288 kts 182°
2026-04-30 13:41 14.37734 120.49193 7043 ft 283 kts 155°
2026-04-30 13:41 14.35921 120.49998 6389 ft 284 kts 148°
2026-04-30 13:41 14.33610 120.51222 5670 ft 279 kts 146°
2026-04-30 13:42 14.32474 120.51840 5336 ft 276 kts 146°
2026-04-30 13:42 14.30764 120.52776 5145 ft 283 kts 146°
2026-04-30 13:42 14.28092 120.55438 5013 ft 263 kts 95°
2026-04-30 13:43 14.28327 120.57228 5008 ft 251 kts 62°
2026-04-30 13:43 14.29093 120.58840 4989 ft 250 kts 62°
2026-04-30 13:43 14.29764 120.60499 5002 ft 251 kts 66°
2026-04-30 13:43 14.30272 120.62227 5002 ft 253 kts 73°
2026-04-30 13:44 14.30625 120.64023 5042 ft 258 kts 70°
2026-04-30 13:44 14.31332 120.65702 5001 ft 253 kts 58°
2026-04-30 13:44 14.32194 120.67262 4995 ft 249 kts 56°
2026-04-30 13:44 14.33057 120.68819 5004 ft 251 kts 57°
2026-04-30 13:45 14.34706 120.71870 5039 ft 224 kts 57°
2026-04-30 13:45 14.35430 120.73217 4893 ft 211 kts 57°
2026-04-30 13:45 14.36121 120.74509 4649 ft 200 kts 56°
2026-04-30 13:46 14.36784 120.75738 4415 ft 192 kts 56°
2026-04-30 13:46 14.37433 120.76940 4224 ft 193 kts 57°
2026-04-30 13:46 14.38086 120.78159 4010 ft 193 kts 57°
2026-04-30 13:46 14.38735 120.79371 3786 ft 192 kts 57°
2026-04-30 13:47 14.39374 120.80562 3663 ft 188 kts 57°
2026-04-30 13:47 14.40011 120.81746 3574 ft 191 kts 57°
2026-04-30 13:47 14.40654 120.82948 3482 ft 191 kts 57°
2026-04-30 13:47 14.41293 120.84141 3362 ft 194 kts 57°
2026-04-30 13:48 14.41930 120.85329 3119 ft 179 kts 57°
2026-04-30 13:48 14.42496 120.86380 2917 ft 156 kts 56°
2026-04-30 13:48 14.42999 120.87311 2703 ft 141 kts 54°
2026-04-30 13:48 14.43469 120.88180 2560 ft 138 kts 54°
2026-04-30 13:49 14.43932 120.89050 2369 ft 140 kts 53°
2026-04-30 13:49 14.44408 120.89942 2212 ft 143 kts 54°
2026-04-30 13:49 14.44877 120.90828 2018 ft 142 kts 54°
2026-04-30 13:49 14.45353 120.91716 1806 ft 141 kts 54°
2026-04-30 13:50 14.45828 120.92603 1651 ft 144 kts 54°
2026-04-30 13:50 14.46798 120.94418 1250 ft 141 kts 55°
2026-04-30 13:50 14.47269 120.95291 1089 ft 138 kts 56°
2026-04-30 13:51 14.47743 120.96180 905 ft 143 kts 55°
2026-04-30 13:51 14.48190 120.97105 766 ft 143 kts 56°
2026-04-30 13:51 14.48709 120.98011 579 ft 148 kts 53°
2026-04-30 13:51 14.49193 120.98920 387 ft 142 kts 54°
2026-04-30 13:52 14.49686 120.99813 172 ft 145 kts 56°
2026-04-30 13:52 14.50186 121.00693 96 ft 129 kts 64°